Weather in Ust-Talovka

Russia / Altai Krai     51°29′16″N   82°17′15″E
temp.,
°C
wind,
m/s
gust,
m/s
humid.,
%
clouds,
%
prec.,
mm/h
press.,
hPa
HPBL,
m
26 july, mon
mon2601:00+20s35538 0.0 100364
04:00+20s465771 0.0 100397
07:00+20ssw376496 0.0 1004117
10:00+25sw6849100 0.1 1003449
13:00+28sw674595 0.1 10031012
16:00+30wnw344092 0.1 10032555
19:00+24nw586399 2.9 1005584
22:00+19nnw597382 0.3 1008466
27 july, tue
tue2701:00+15nw269055 0.3 1009167
04:00+13ne119569 0.0 100913
07:00+15nne2688100 0.1 1010359
10:00+15nne5778100 0.1 1010519
13:00+20n55450 0.1 10091559
16:00+22nne66380 0.0 10081810
19:00+20nne57450 0.0 10081737
22:00+14nne33600 0.0 100941
28 july, wed
wed2801:00+12n337132 0.0 101035
04:00+11ne22706 0.0 101021
07:00+12e11723 0.0 101016
10:00+17nnw445676 0.0 1010565
13:00+19n224524 0.0 10101229
16:00+18nnw344799 0.0 1010376
19:00+20nne224264 0.0 10091741
22:00+15ne116122 0.0 101112
29 july, thu
thu2901:00+11n11730 0.0 101110
04:00+9s11800 0.0 101110
07:00+10ne11787 0.0 101110
10:00+17nne23545 0.0 1010607
13:00+21nne334392 0.0 10091673
16:00+23n3437100 0.0 10082083
19:00+22n4543100 0.0 10081120
22:00+15nne335762 0.0 100928
30 july, fri
fri3001:00+12ne226844 0.0 100910
04:00+12e2268100 0.0 101010
07:00+13nne11720 0.0 101110
10:00+20n34490 0.0 1012540
13:00+24n34337 0.0 10122387
16:00+25n443157 0.0 10112883
19:00+24nnw33347 0.0 10111341
22:00+16n225125 0.0 101421